MAZAALAI (NUMSAT-1) (42822 NORAD) Tracking and Keplerian Element Data

This shows tracking and keplerian element data for the satellite.

Feedback or suggestion? Click here.




ElementValue
Catalog42822
NameMAZAALAI (NUMSAT-1)
Epoch Orbit10230
Epoch Day110.20476301
Epoch Year2019
RAAN215.8466
Inclination51.626
Eccentricity0.0009448
Argument of Perigee333.4628
Mean Anonmoly26.5897
Mean Motion16.01643411
Decay Rate0.0025481
L11 42822U 98067MW 19110.20476301 .00254810 38963-4 44308-3 0 9998
L22 42822 51.6260 215.8466 0009448 333.4628 26.5897 16.01643411102306

Live tracking and technical data element details for MAZAALAI (NUMSAT-1) (NORAD 42822). MAZAALAI (NUMSAT-1) can be tracked NOW for your location showing map with azimuth and elevation plus other details from your city location.

Track the satellite on the map from your city or location and see movement details for azimuth, elevation, latitude, longitude, range, height, and movement on the map or in text.







IsCatalogInMostPopularTable: catalog: 42822, numindb: 229
Update: records affected: 1



GetName: 42822 MAZAALAI (NUMSAT-1)

Hit Count: updated at: Sat, 20 Apr 2019 20:30:01 GMT